76P/West-Kohoutek-Ikemura (2019)

Japanese version
Home page
Updated on November 10, 2019

---------------------------------------------------------------------

* Profile

* Pictures

* Orbital Elements

Epoch 2019 Nov. 13.0 TT = JDT 2458800.5
T 2019 Oct. 26.14507 TT                                 MPCW
q   1.6047998            (2000.0)            P               Q
n   0.15213992     Peri.    0.02231     +0.10202259     -0.85752228
a   3.4751529      Node    84.12511     +0.91261617     -0.12103362
e   0.5382074      Incl.   30.45698     +0.39588271     +0.50000640
P   6.48
From 695 observations 1993 July 20-2019 Nov. 4, mean residual 0".8.
     Nongravitational parameters A1 = -0.17, A2 = -0.0171.

* Finding Charts

* Magnitudes Graph

        m1 = 13.0 + 5 log d + 22.0 log r

---------------------------------------------------------------------

The orbital elements are published on M.P.E.C. 2019-V116.
The charts are made with StellaNavigator Ver.10 (AstroArts).
The magnitudes graphs are made with Comet for Windows.

---------------------------------------------------------------------

Copyright(C) Seiichi Yoshida (comet@aerith.net). All rights reserved.